Weather History for K1P1 - October, 2012

Change the Weather History Date:

Thursday, October 4, 2012

  Actual Average (KLCI) Record (KLCI)
Temperature  
Mean Temperature 60 °F -  
Max Temperature 61 °F 63 °F 78 °F (2001)
Min Temperature 58 °F 44 °F 33 °F (1996)
Degree Days  
Heating Degree Days 6    
Growing Degree Days 10 (Base 50)    
Moisture  
Dew Point 59 °F    
Average Humidity 96    
Maximum Humidity 98    
Minimum Humidity 91    
Precipitation  
Precipitation 0.10 in - - ()
Sea Level Pressure  
Sea Level Pressure 30.12 in    
Wind  
Wind Speed 0 mph (East)    
Max Wind Speed 6 mph    
Max Gust Speed -    
Visibility 7 miles    
Events Rain    
Averages and records for this station are not official NWS values.
T = Trace of Precipitation, MM = Missing Value Source: NWS Daily Summary

Daily Weather History Graph

Daily Weather History Graph

Search for Another Location

Airport or City:

Trip Planner

Search our weather history database for the weather conditions in past years. The results will help you decide how hot, cold, wet, or windy it might be!

Date:

Astronomy

Oct. 04, 2012 Rise Set
Actual Time 6:48 AM EDT 6:21 PM EDT
Civil Twilight 6:19 AM EDT 6:50 PM EDT
Nautical Twilight 5:46 AM EDT 7:23 PM EDT
Astronomical Twilight 5:13 AM EDT 7:57 PM EDT
Moon 8:46 PM EDT (10/4) 11:11 AM EDT (10/4)
Length of Visible Light 12h 30m
Length of Day
11h 33m
Waning Gibbous, 82% of the Moon is Illuminated
Oct 4
Waning Gibbous
Oct 8
Last Quarter
Oct 15
New
Oct 21
First Quarter
Oct 29
Full

Hourly Weather History & Observations

Time (EDT) Temp. Dew Point Humidity Pressure Visibility Wind Dir Wind Speed Gust Speed Precip Events Conditions
12:15 AM 59.0 °F 58.1 °F 97% 30.17 in 7.0 mi Calm Calm - N/A Rain Light Rain
12:35 AM 59.0 °F 58.1 °F 97% 30.17 in 10.0 mi Calm Calm - N/A   Overcast
12:55 AM 59.0 °F 58.1 °F 97% 30.17 in 7.0 mi Calm Calm - N/A   Overcast
1:15 AM 59.0 °F 58.1 °F 97% 30.17 in 7.0 mi Calm Calm - N/A   Overcast
1:35 AM 59.0 °F 58.1 °F 97% 30.17 in 5.0 mi Calm Calm - N/A   Overcast
1:55 AM 59.0 °F 58.1 °F 97% 30.17 in 7.0 mi Calm Calm - N/A   Overcast
2:15 AM 59.0 °F 58.1 °F 97% 30.16 in 10.0 mi Calm Calm - N/A   Overcast
2:35 AM 58.8 °F 57.9 °F 97% 30.15 in 7.0 mi Calm Calm - N/A   Overcast
3:15 AM 58.6 °F 57.7 °F 97% 30.16 in 7.0 mi Calm Calm - N/A   Overcast
3:35 AM 58.8 °F 57.9 °F 97% 30.16 in 10.0 mi Calm Calm - N/A   Overcast
3:55 AM 58.8 °F 57.9 °F 97% 30.17 in 10.0 mi Calm Calm - N/A   Overcast
4:15 AM 58.8 °F 57.9 °F 97% 30.17 in 4.0 mi Calm Calm - N/A   Overcast
4:35 AM 58.6 °F 57.7 °F 97% 30.16 in 4.0 mi Calm Calm - N/A   Overcast
4:55 AM 58.5 °F 57.6 °F 97% 30.17 in 4.0 mi Calm Calm - N/A   Overcast
5:15 AM 58.6 °F 57.7 °F 97% 30.16 in 7.0 mi Calm Calm - N/A   Overcast
5:35 AM 58.6 °F 57.7 °F 97% 30.16 in 7.0 mi Calm Calm - N/A   Overcast
5:55 AM 58.5 °F 57.6 °F 97% 30.17 in 5.0 mi Calm Calm - N/A   Overcast
6:15 AM 58.5 °F 57.6 °F 97% 30.17 in 7.0 mi Calm Calm - N/A   Overcast
6:35 AM 58.5 °F 57.7 °F 97% 30.17 in 5.0 mi Calm Calm - N/A   Overcast
6:55 AM 58.5 °F 57.7 °F 97% 30.17 in 7.0 mi Calm Calm - N/A   Overcast
7:15 AM 58.5 °F 57.7 °F 97% 30.17 in 3.0 mi Calm Calm - N/A   Overcast
7:35 AM 58.6 °F 57.9 °F 97% 30.17 in 2.0 mi Calm Calm - N/A   Overcast
7:55 AM 58.6 °F 58.1 °F 98% 30.17 in 2.5 mi Calm Calm - N/A   Overcast
8:15 AM 58.8 °F 58.1 °F 97% 30.17 in 3.0 mi Calm Calm - N/A   Overcast
8:35 AM 58.6 °F 58.1 °F 98% 30.16 in 7.0 mi Calm Calm - N/A Rain Light Rain
8:55 AM 59.0 °F 58.1 °F 97% 30.17 in 2.5 mi Calm Calm - N/A   Overcast
9:15 AM 59.0 °F 58.1 °F 97% 30.17 in 3.0 mi Calm Calm - N/A   Overcast
9:35 AM 59.4 °F 58.6 °F 97% 30.16 in 7.0 mi Calm Calm - N/A   Overcast
9:55 AM 59.9 °F 58.8 °F 96% 30.17 in 4.0 mi Calm Calm - N/A   Overcast
10:15 AM 59.9 °F 58.6 °F 96% 30.16 in 3.0 mi Calm Calm - N/A   Overcast
10:35 AM 59.9 °F 58.8 °F 96% 30.16 in 3.0 mi Calm Calm - N/A   Overcast
10:55 AM 60.3 °F 58.8 °F 95% 30.16 in 3.0 mi Calm Calm - N/A   Overcast
11:15 AM 60.3 °F 59.0 °F 96% 30.16 in 2.5 mi Calm Calm - N/A   Overcast
11:35 AM 60.3 °F 59.0 °F 96% 30.16 in 5.0 mi Calm Calm - N/A   Overcast
12:15 PM 60.8 °F 58.6 °F 93% 30.14 in 10.0 mi ENE 5.8 mph - N/A   Overcast
12:35 PM 61.0 °F 58.6 °F 92% 30.14 in 10.0 mi East 3.5 mph - N/A   Overcast
12:55 PM 60.8 °F 58.1 °F 91% 30.13 in 7.0 mi East 3.5 mph - 0.02 in Rain Rain
1:15 PM 60.4 °F 58.5 °F 93% 30.12 in 10.0 mi East 3.5 mph - 0.01 in Rain Light Rain
1:35 PM 60.4 °F 58.6 °F 94% 30.12 in 7.0 mi Calm Calm - 0.02 in Rain Rain
1:55 PM 60.4 °F 59.0 °F 95% 30.11 in 4.0 mi Calm Calm - 0.07 in Rain Light Rain
2:15 PM 60.4 °F 59.0 °F 95% 30.10 in 7.0 mi ENE 3.5 mph - N/A Rain Light Rain
2:35 PM 61.0 °F 59.4 °F 94% 30.09 in 10.0 mi ENE 3.5 mph - 0.01 in Rain Light Rain
2:55 PM 61.2 °F 59.2 °F 93% 30.08 in 10.0 mi East 3.5 mph - 0.01 in   Light Drizzle
3:15 PM 61.2 °F 59.2 °F 93% 30.05 in 10.0 mi East 3.5 mph - N/A   Overcast
3:35 PM 61.3 °F 59.0 °F 92% 30.08 in 10.0 mi Calm Calm - N/A Rain Light Rain
3:55 PM 61.0 °F 59.0 °F 93% 30.08 in 10.0 mi Calm Calm - N/A   Overcast
4:15 PM 61.0 °F 59.4 °F 94% 30.08 in 10.0 mi Calm Calm - N/A   Light Drizzle
4:35 PM 61.2 °F 59.4 °F 94% 30.07 in 10.0 mi Calm Calm - N/A   Overcast
4:55 PM 61.2 °F 59.2 °F 93% 30.07 in 10.0 mi Calm Calm - N/A   Overcast
5:15 PM 61.2 °F 59.4 °F 94% 30.07 in 10.0 mi Calm Calm - N/A   Overcast
5:35 PM 61.2 °F 59.4 °F 94% 30.05 in 10.0 mi Calm Calm - N/A   Overcast
5:55 PM 61.0 °F 59.4 °F 94% 30.06 in 10.0 mi Calm Calm - N/A   Overcast
6:15 PM 61.0 °F 59.4 °F 94% 30.06 in 10.0 mi Calm Calm - N/A   Overcast
6:35 PM 60.8 °F 59.5 °F 96% 30.06 in 10.0 mi Calm Calm - N/A   Overcast
6:55 PM 60.6 °F 59.4 °F 96% 30.04 in 10.0 mi Calm Calm - N/A   Overcast
7:15 PM 60.4 °F 59.2 °F 96% 30.05 in 10.0 mi Calm Calm - N/A   Overcast
7:35 PM 60.3 °F 59.2 °F 96% 30.03 in 10.0 mi Calm Calm - N/A   Overcast
7:55 PM 60.3 °F 59.0 °F 96% 30.04 in 10.0 mi Calm Calm - N/A   Overcast
8:15 PM 60.3 °F 59.2 °F 96% 30.05 in 10.0 mi Calm Calm - N/A   Overcast
8:55 PM 59.9 °F 59.0 °F 97% 30.04 in 7.0 mi Calm Calm - N/A   Overcast
9:15 PM 59.9 °F 59.0 °F 97% 30.04 in 7.0 mi Calm Calm - N/A   Overcast
9:35 PM 59.9 °F 59.0 °F 97% 30.04 in 2.5 mi Calm Calm - N/A   Overcast
10:15 PM 59.9 °F 59.0 °F 97% 30.04 in 10.0 mi Calm Calm - N/A   Overcast
10:35 PM 59.9 °F 59.0 °F 97% 30.04 in 7.0 mi Calm Calm - N/A   Overcast
11:15 PM 59.4 °F 58.6 °F 97% 30.04 in 3.0 mi Calm Calm - N/A   Overcast
11:35 PM 59.5 °F 59.0 °F 98% 30.03 in 5.0 mi Calm Calm - N/A   Overcast
11:55 PM 59.5 °F 59.0 °F 98% 30.03 in 3.0 mi Calm Calm - N/A   Overcast